Houghton Lake, MI

8:33 AM EDT on July 30, 2016 (GMT -0400)
Roscommon County

Weather History for KHTL - August, 2013

Change the Weather History Date:

Thursday, August 1, 2013

  Actual Average Record
Temperature  
Mean Temperature 66 °F 67 °F  
Max Temperature 78 °F 79 °F 98 °F (1955)
Min Temperature 53 °F 55 °F 32 °F (1947)
Degree Days  
Heating Degree Days 0 2  
Month to date heating degree days 0 2  
Since 1 June heating degree days 147 173  
Since 1 July heating degree days 45 49  
Cooling Degree Days 1 3  
Month to date cooling degree days 1 3  
Year to date cooling degree days 266 190  
Since 1 June cooling degree days 226 174  
Growing Degree Days 16 (Base 50)    
Moisture  
Dew Point 55 °F    
Average Humidity 70    
Maximum Humidity 100    
Minimum Humidity 39    
Precipitation  
Precipitation 0.01 in 0.12 in 0.81 in (2009)
Month to date precipitation 0.01 0.12  
Year to date precipitation 18.38 15.84  
Sea Level Pressure  
Sea Level Pressure 29.91 in    
Wind  
Wind Speed 7 mph (WNW)    
Max Wind Speed 16 mph    
Max Gust Speed 23 mph    
Visibility 8 miles    
Events Rain    
T = Trace of Precipitation, MM = Missing Value Source: NWS Daily Summary

Daily Weather History Graph

Daily Weather History Graph

Search for Another Location

Airport or City:

Trip Planner

Search our weather history database for the weather conditions in past years. The results will help you decide how hot, cold, wet, or windy it might be!

Date:

Astronomy

Aug. 01, 2013 Rise Set
Actual Time 6:26 AM EDT 9:03 PM EDT
Civil Twilight 5:52 AM EDT 9:36 PM EDT
Nautical Twilight 5:11 AM EDT 10:17 PM EDT
Astronomical Twilight 4:23 AM EDT 11:05 PM EDT
Moon 2:00 AM EDT (8/1) 5:12 PM EDT (8/1)
Length of Visible Light 15h 43m
Length of Day
14h 37m
Waning Crescent, 23% of the Moon is Illuminated
Aug 1
Waning Crescent
Aug 6
New
Aug 14
First Quarter
Aug 20
Full
Aug 28
Last Quarter

Hourly Weather History & Observations

Time (EDT) Temp. Dew Point Humidity Pressure Visibility Wind Dir Wind Speed Gust Speed Precip Events Conditions
12:04 AM 64.4 °F 62.6 °F 94% 29.93 in 10.0 mi North 12.7 mph 18.4 mph N/A   Overcast
12:13 AM 62.6 °F 59.0 °F 88% 29.93 in 10.0 mi NNE 12.7 mph - 0.00 in Rain Light Rain
12:53 AM 60.1 °F 55.9 °F 86% 29.94 in 10.0 mi NE 6.9 mph - 0.01 in Rain Light Rain
1:12 AM 59.0 °F 55.4 °F 88% 29.95 in 10.0 mi ENE 3.5 mph - 0.01 in Rain Light Rain
1:53 AM 57.9 °F 57.0 °F 97% 29.92 in 10.0 mi Calm Calm - 0.02 in Rain Light Rain
2:53 AM 55.0 °F 55.0 °F 100% 29.90 in 3.0 mi Calm Calm - 0.00 in   Clear
3:12 AM 53.6 °F 53.6 °F 100% 29.89 in 1.8 mi Calm Calm - N/A   Clear
3:14 AM 53.6 °F 53.6 °F 100% 29.89 in 1.0 mi Calm Calm - N/A   Clear
3:21 AM 53.6 °F 53.6 °F 100% 29.89 in 0.8 mi Calm Calm - N/A   Clear
3:25 AM 53.6 °F 53.6 °F 100% 29.90 in 1.2 mi Calm Calm - N/A   Clear
3:29 AM 53.6 °F 53.6 °F 100% 29.90 in 3.0 mi Calm Calm - N/A   Clear
3:35 AM 53.6 °F 53.6 °F 100% 29.90 in 1.8 mi Calm Calm - N/A   Clear
3:39 AM 53.6 °F 53.6 °F 100% 29.90 in 1.2 mi Calm Calm - N/A   Partly Cloudy
3:46 AM 53.6 °F 53.6 °F 100% 29.90 in 1.0 mi Calm Calm - N/A   Scattered Clouds
3:51 AM 53.6 °F 53.6 °F 100% 29.90 in 1.8 mi Calm Calm - N/A   Mostly Cloudy
3:53 AM 54.0 °F 54.0 °F 100% 29.91 in 3.0 mi Calm Calm - N/A   Mostly Cloudy
4:53 AM 60.1 °F 57.9 °F 93% 29.90 in 10.0 mi West 4.6 mph - N/A   Overcast
5:53 AM 61.0 °F 57.9 °F 90% 29.90 in 10.0 mi West 4.6 mph - N/A   Overcast
6:07 AM 60.8 °F 59.0 °F 94% 29.91 in 10.0 mi WSW 6.9 mph - N/A   Mostly Cloudy
6:20 AM 60.8 °F 59.0 °F 94% 29.90 in 9.0 mi West 6.9 mph - N/A   Scattered Clouds
6:53 AM 62.1 °F 59.0 °F 90% 29.91 in 10.0 mi WNW 6.9 mph - N/A   Mostly Cloudy
7:09 AM 62.6 °F 59.0 °F 88% 29.91 in 10.0 mi West 6.9 mph - N/A   Overcast
7:33 AM 60.8 °F 59.0 °F 94% 29.91 in 10.0 mi WNW 6.9 mph - N/A   Overcast
7:53 AM 60.1 °F 59.0 °F 96% 29.91 in 7.0 mi WNW 6.9 mph - N/A   Overcast
8:53 AM 62.1 °F 60.1 °F 93% 29.92 in 10.0 mi WNW 6.9 mph - N/A   Overcast
9:06 AM 62.6 °F 60.8 °F 94% 29.92 in 10.0 mi West 8.1 mph - N/A   Mostly Cloudy
9:26 AM 62.6 °F 60.8 °F 94% 29.92 in 10.0 mi West 5.8 mph - N/A   Scattered Clouds
9:53 AM 64.9 °F 60.1 °F 84% 29.91 in 10.0 mi West 4.6 mph - N/A   Clear
10:53 AM 68.0 °F 59.0 °F 73% 29.90 in 10.0 mi West 6.9 mph - N/A   Clear
11:53 AM 72.0 °F 55.0 °F 55% 29.90 in 10.0 mi West 10.4 mph - N/A   Clear
12:53 PM 75.0 °F 51.1 °F 43% 29.90 in 10.0 mi WNW 11.5 mph 17.3 mph N/A   Scattered Clouds
1:53 PM 75.9 °F 50.0 °F 40% 29.89 in 10.0 mi WNW 12.7 mph 20.7 mph N/A   Mostly Cloudy
2:53 PM 77.0 °F 52.0 °F 42% 29.89 in 10.0 mi WNW 13.8 mph - N/A   Partly Cloudy
3:53 PM 77.0 °F 51.1 °F 40% 29.88 in 10.0 mi West 13.8 mph 18.4 mph N/A   Partly Cloudy
4:53 PM 73.9 °F 51.1 °F 45% 29.89 in 10.0 mi NW 10.4 mph 19.6 mph N/A   Mostly Cloudy
5:53 PM 77.0 °F 50.0 °F 39% 29.88 in 10.0 mi NNW 12.7 mph 21.9 mph N/A   Partly Cloudy
6:53 PM 73.9 °F 48.9 °F 41% 29.89 in 10.0 mi NNW 11.5 mph - N/A   Partly Cloudy
7:53 PM 71.1 °F 48.0 °F 44% 29.90 in 10.0 mi NW 9.2 mph - N/A   Clear
8:53 PM 66.0 °F 50.0 °F 56% 29.90 in 10.0 mi NW 6.9 mph - N/A   Clear
9:53 PM 60.1 °F 51.1 °F 72% 29.91 in 10.0 mi Calm Calm - N/A   Clear
10:53 PM 57.0 °F 52.0 °F 83% 29.92 in 10.0 mi West 3.5 mph - N/A   Scattered Clouds
11:53 PM 64.0 °F 54.0 °F 70% 29.91 in 10.0 mi WNW 3.5 mph - N/A   Clear